Other Public Products
Issued by NWS Grand Forks, ND

Home | Current Version | Previous Version | Text Only | Print | Product List | Glossary Off
Versions: 1 2 3 4 5 6 7 8 9 10 11 12 13 14 15 16 17 18 19 20 21 22 23 24 25 26 27 28 29 30 31 32 33 34 35 36 37 38 39 40 41 42 43 44 45 46 47 48 49 50

935
FPUS83 KFGF 210910
OPUFGF
PRAIRIE TO PINES WEATHER ROUNDUP
NATIONAL WEATHER SERVICE EASTERN NORTH DAKOTA/GRAND FORKS ND
400 AM CDT SAT APR 21 2018

 **SATELLITE DATA USED TO AUGMENT SKY COVER AT AUTOMATED STATIONS**
 *****  WEATHER ACROSS EASTERN NORTH DAKOTA  *****

CITY           SKY/WX    TMP DP  RH WIND       PRES   REMARKS
GRAND FORKS    FAIR      34  34 100 S9        30.34S
GRND FORKS AFB FAIR      35  35  99 S7        30.33S
GRND FORKS NWS   N/A     36  34  91 S9        30.32R
BUXTON           N/A     35  35  99 SE7         N/A
DEVILS LAKE    FAIR      33  31  92 SE8       30.29S
FARGO          FAIR      36  33  89 S9        30.36S
WAHPETON ARPT  FAIR      32  30  93 SE8       30.38R WCI  25
$$

 *****  WEATHER ACROSS CENTRAL AND WESTERN NORTH DAKOTA  *****

CITY           SKY/WX    TMP DP  RH WIND       PRES   REMARKS
JAMESTOWN      FAIR      34  32  92 S7        30.30S
BISMARCK       FAIR      37  34  89 SE9       30.27S
MINOT          FAIR      45  36  70 S15G24    30.19S
MINOT AFB      FAIR      42  36  79 SW14      30.17F
GARRISON         N/A     37  34  89 S13       30.21F
WILLISTON      FAIR      42  37  82 SE6       30.15F
DICKINSON      FAIR      37  35  92 S13       30.17F
HETTINGER      MOCLDY    39  36  89 S12       30.23S
$$

 *****  OTHER OBSERVATIONS NORTHEAST NORTH DAKOTA  *****

CITY           SKY/WX    TMP DP  RH WIND       PRES   REMARKS
WALHALLA       FAIR      36  36 100 S5        30.29S
LANGDON        FAIR      36  36 100 S12       30.28S
CAVALIER         N/A     34  30  86 S6        30.30S
GRAFTON        FAIR      34  34 100 S10       30.34S
CANDO          FAIR      32  32 100 SE6       30.28S
FORT TOTTEN    NOT AVBL
ROLLA          CLOUDY    32  32 100 CALM      30.25R
RUGBY          FAIR      36  34  93 S8        30.24S
 ***** THE ABOVE OBSERVATIONS ARE NON NWS ARE NOT QUALITY
        CONTROLLED AND MAY MIS-REPORT RAIN FOR SNOW...
$$

 *****  OTHER OBSERVATIONS SOUTHEAST NORTH DAKOTA *****

CITY           SKY/WX    TMP DP  RH WIND       PRES   REMARKS
COOPERSTOWN    CLOUDY    36  36 100 S8        30.32S
VALLEY CITY    FAIR      34  34 100 S8        30.34S
OAKES            N/A     36  36 100 S12       30.34S
GWINNER          N/A     34  34 100 CALM      30.35S FOG
SHEYENNE NWR     N/A     29  29 100 SE3       29.95S
BUFFALO          N/A     35  34  94 E8          N/A
WYNDMERE       NOT AVBL
 ***** THE ABOVE OBSERVATIONS ARE NON NWS ARE NOT QUALITY
       CONTROLLED AND MAY MIS-REPORT RAIN FOR SNOW...
$$

  *****  WEATHER ACROSS NORTHERN MINNESOTA  *****

CITY           SKY/WX    TMP DP  RH WIND       PRES   REMARKS
FLAG ISLAND    FAIR      32  28  86 SE6       30.35R
WARROAD        FAIR      36  30  80 S5        30.36S
ROSEAU         FAIR      34  28  80 S6        30.35S
HALLOCK        FAIR      36  34  93 SE10      30.32S
THF RVR FALLS  FAIR      36  32  85 S8        30.36F
HALSTAD        NOT AVBL
FOSSTON        FAIR      30  25  80 S3        30.37S
BAUDETTE       FAIR      31  29  92 CALM      30.36R
WASKISH        FAIR      28  25  86 CALM      30.37S
CROOKSTON      FAIR      36  34  93 S7        30.37R
$$
  *****  WEATHER ACROSS CENTRAL AND WEST MINNESOTA  *****

CITY           SKY/WX    TMP DP  RH WIND       PRES   REMARKS
BEMIDJI        FAIR      28  21  76 CALM      30.37S
PARK RAPIDS    FAIR      30  23  75 CALM      30.37S
WADENA         FAIR      28  28 100 CALM      30.38S FOG
DETROIT LAKES  FAIR      34  32  93 CALM      30.38R
MOORHEAD       FAIR      34  30  86 SE6       30.38R
FERGUS FALLS   FAIR      34  28  80 SE6       30.37S
ELBOW LAKE     FAIR      32  30  90 E6        30.39R
MORRIS MN      FAIR      34  30  86 SE6       30.38R
STAPLES        FAIR      27  25  93 CALM      30.39R
WHEATON        FAIR      34  30  86 SE6       30.40R
$$
  *****  WEATHER ELSEWHERE ACROSS MINNESOTA  *****

CITY           SKY/WX    TMP DP  RH WIND       PRES   REMARKS
DULUTH         FAIR      36  19  50 NW3       30.38S
INTRNTL FALLS  FAIR      27  23  85 CALM      30.36R
ELY            FAIR      27  21  80 SE3       30.37S
CLOQUET        FAIR      28  19  69 W3        30.39S
BRAINERD       FAIR      27  23  85 CALM      30.39S
HIBBING        FAIR      24  20  84 CALM      30.38R
ALEXANDRIA     FAIR      35  30  82 S5        30.39R
SAINT CLOUD    FAIR      31  27  85 S5        30.40R
MINNEAPOLIS    CLOUDY    38  28  67 CALM      30.42R
$$

  *****  WEATHER ACROSS SOUTH DAKOTA  *****

CITY           SKY/WX    TMP DP  RH WIND       PRES   REMARKS
SIOUX FALLS    CLOUDY    38  32  79 E5        30.37S
BROOKINGS      CLOUDY    37  33  85 CALM      30.37S
WATERTOWN      MOCLDY    37  32  82 S7        30.36S
HURON          CLOUDY    40  36  86 SE8       30.34F
SISSETON         N/A     37  34  89 S5        30.36R
ABERDEEN       CLOUDY    40  37  89 S8        30.34S
MITCHELL       CLOUDY    38  36  92 E7        30.35S
PIERRE         LGT RAIN  41  40  96 S6        30.31S
MOBRIDGE       CLOUDY    43  38  82 SE6       30.28R
RAPID CITY     CLOUDY    38  37  97 S14       30.23F
$$

  *****  SOME WEATHER IN NEARBY STATES *****

CITY           SKY/WX    TMP DP  RH WIND       PRES   REMARKS
GLASGOW MT     FAIR      43  35  73 E14       30.06F
GREAT FALLS MT FAIR      37  26  64 S10       30.04F
CHEYENNE WY    FLURRIES  31  31 100 E7        30.12F WCI  24
SCOTTSBLUFF NE CLOUDY    34 N/A N/A NE3       30.20F HAZE
OMAHA NE       CLOUDY    50  28  42 E7        30.30F
DES MOINES IA  CLOUDY    47  34  60 NE5       30.38R
DAVENPORT IA   FAIR      45  25  45 E10       30.40F
CHICAGO IL     CLOUDY    41  22  46 E3        30.43R
EAU CLAIRE WI  FAIR      30  24  78 CALM      30.41S
LA CROSSE WI   FAIR      37  28  70 CALM      30.42S
$$

  *****  SOME NATIONAL WEATHER *****

CITY           SKY/WX    TMP DP  RH WIND       PRES   REMARKS
LA GUARDIA NY  FAIR      41  26  55 NW12      30.38S
RALEIGH NC     FAIR      40  35  83 CALM      30.38S
ATLANTA GA     FAIR      49  37  63 E7        30.30R
NEW ORLEANS LA MOCLDY    58  51  78 E7        30.10F
OKLAHOMA CITY  CLOUDY    56  41  57 E3        30.04R
ALBUQUERQUE NM FAIR      39  34  82 SE7       30.06F
SALT LAKE CITY FAIR      48  38  68 SE6       30.12R
LOS ANGELES CA FAIR      57  52  83 CALM      30.07F
BOISE ID         N/A     47  33  58 E8        30.12S
SEATTLE WA     LGT RAIN  48  38  68 S15G24    30.19R
$$

*** WEATHER ACROSS MANITOBA...SASKATCHEWAN AND ONTARIO ***
                ***ONTARIO***

CITY           SKY/WX    TMP DP  RH WIND       PRES   REMARKS
GERALDTON      CLEAR     21  16  79 N3        30.36S
THUNDER BAY    PTCLDY    27  23  86 W2        30.38S
SIOUX LOOKOUT  NOT AVBL
TORONTO        CLEAR     32  23  69 N3        30.43F
BIG TROUT LK   CLEAR     32  21  64 S7        30.31F
PICKLE LAKE    NOT AVBL
DRYDEN         CLEAR     39  21  48 SW2       30.35R
KENORA         PTCLDY    39  28  65 S2        30.34S
$$
                *** MANITOBA***

CITY           SKY/WX    TMP DP  RH WIND       PRES   REMARKS
BRANDON        CLEAR     30  28  93 E5        30.22F
DAUPHIN        CLEAR     36  32  87 NE6       30.17F
ISLAND LAKE    NOT AVBL
PILOT MOUND      N/A     32  30  93 S8          N/A  WCI  25
THE PAS        CLEAR     32  27  80 SE7       30.09F
THOMPSON       CLEAR     36  19  51 S5        30.11F
WINNIPEG       NOT AVBL
LYNN LAKE      MOCLDY    37  27  65 S6        30.01R
CHURCHILL      MOCLDY    41  28  60 SW14      30.04F
GILLAM         MOCLDY    37  19  48 S8        30.16F
$$
                ***SASKATCHEWAN***

CITY           SKY/WX    TMP DP  RH WIND       PRES   REMARKS
ESTEVAN        PTCLDY    41  36  81 S8        30.14S
KINDERSLEY     MOCLDY    39  32  75 SW6       29.96F
LLOYDMINSTER   PTCLDY    36  32  87 S2        29.94F
PRINCE ALBERT  PTCLDY    32  30  93 E9        30.02F WCI  24
REGINA         CLEAR     36  32  87 SE10      30.07F
YORKTON        CLEAR     37  32  81 S13       30.11F



USA.gov is the U.S. government's official web portal to all federal, state and local government web resources and services.